Temperature
12 12 12 11 11 11 11 11 11 11 11 11 10 10 10 10 10 10 10 10 10 10 10 10 10 10 10 10 10 10 10 10 10 10 11 10 11 10 10 10 10 11 11
12 12 11 11 11 11 11 11 11 11 10 10 10 10 10 10 10 10 10 10 10 10 10 9 10 10 10 10 10 10 10 10 10 10 10 10 10 10 10 10 10 10 10
12 11 11 11 11 11 11 10 10 10 10 10 10 10 10 9 9 9 9 9 9 9 9 9 9 9 9 9 9 9 9 10 10 10 10 10 10 10 10 10 10 10 10
11 11 11 11 11 10 10 10 10 10 10 10 10 9 9 9 9 9 9 9 9 9 9 9 9 9 9 9 9 9 9 9 9 9 9 9 9 9 9 9 10 10 10
11 11 11 10 10 10 10 10 10 10 10 10 9 9 9 9 9 9 9 9 9 9 9 9 9 9 9 9 9 9 9 9 9 9 9 9 9 9 9 9 9 10 10
11 11 10 10 10 10 10 10 10 9 9 9 9 9 9 9 9 9 9 9 9 9 9 9 9 9 9 8 9 9 9 9 9 9 9 9 9 9 9 9 9 9 9
11 10 10 10 10 10 10 9 9 9 9 9 9 9 9 9 9 9 9 9 9 9 9 9 8 8 8 8 8 8 8 8 8 8 9 9 9 9 9 9 9 9 9
10 10 10 10 10 10 9 9 9 9 9 9 9 9 9 9 9 9 9 9 9 9 9 9 8 8 8 8 8 8 8 8 8 8 8 9 9 9 9 9 9 9 9
10 10 10 10 10 9 9 9 9 9 9 9 9 9 9 9 9 9 9 9 9 9 9 9 8 8 8 8 8 8 8 8 8 8 8 8 9 9 9 9 9 9 9
10 10 10 10 9 9 9 9 9 9 9 9 9 9 9 9 9 9 9 9 9 9 9 9 9 8 8 8 8 8 8 8 8 8 8 8 9 9 9 9 9 9 9
10 10 10 9 9 9 9 9 9 9 9 9 9 9 9 9 9 9 9 9 9 9 9 8 8 8 8 8 8 8 8 8 8 8 8 9 9 9 9 9 9 9 9
10 10 10 9 9 9 9 9 9 9 9 9 10 9 9 9 9 9 9 9 9 9 9 8 8 8 8 8 8 8 8 8 8 8 9 9 9 9 9 9 9 9 9
10 10 9 9 9 9 9 9 9 10 10 10 10 10 9 9 9 9 9 9 9 9 9 9 9 9 9 9 9 9 9 9 9 9 9 9 9 9 9 9 9 9 9
10 9 9 9 9 9 10 10 10 10 10 10 10 10 9 9 9 9 9 9 9 9 9 9 9 9 9 9 9 9 9 9 9 9 9 9 9 9 9 9 9 9 9
10 9 10 10 10 10 10 10 10 10 10 10 10 10 9 9 9 9 9 9 9 9 9 9 9 9 9 9 9 9 9 9 9 9 9 9 9 9 9 10 9 9 9
10 10 10 10 10 10 10 10 10 10 10 10 10 10 10 9 9 9 9 9 9 9 9 9 9 9 10 10 10 10 10 10 10 10 10 10 10 10 10 10 10 10 10
10 10 10 10 10 10 10 10 10 10 10 10 10 10 10 10 10 10 10 10 10 10 10 10 10 10 10 10 10 10 10 10 10 10 10 10 10 10 10 10 10 10 10
10 10 10 10 10 11 11 11 11 11 11 11 11 10 10 10 10 10 10 10 10 10 10 10 10 10 10 11 11 11 10 10 10 10 10 10 10 10 10 10 11 11 11
10 10 10 11 11 11 11 11 11 11 11 11 11 11 11 10 10 10 10 10 10 10 10 10 11 11 11 11 11 11 11 11 11 11 11 11 10 10 11 11 11 11 11
11 11 11 11 11 11 11 11 11 11 11 11 11 11 11 11 10 10 10 10 10 10 11 11 11 11 11 11 11 11 11 11 11 11 11 11 11 11 11 11 11 11 11
11 11 11 11 11 11 12 12 12 12 12 12 12 11 11 11 11 11 11 11 10 11 11 11 11 11 11 11 11 11 11 11 11 11 11 11 11 11 11 11 11 11 11
12 12 12 12 12 12 12 12 12 12 12 12 12 12 12 11 11 11 11 11 11 11 11 11 10 11 11 11 11 11 11 11 11 11 10 11 11 11 11 11 11 11 11
12 12 12 12 12 12 12 12 12 12 12 12 12 12 12 12 11 11 11 11 11 11 11 11 11 11 11 11 11 11 11 10 10 10 10 10 10 10 10 10 10 11 11
12 12 12 12 12 12 12 12 12 12 12 12 12 12 12 12 11 11 11 11 11 11 11 11 11 11 10 10 10 10 10 10 10 10 10 10 10 10 10 10 10 10 10
12 13 13 13 13 12 12 12 12 12 12 12 12 12 12 12 11 11 11 11 11 11 11 11 11 10 10 10 10 10 10 10 10 10 10 10 10 10 10 10 10 10 10
13 13 13 13 13 13 13 12 12 12 12 12 12 12 12 11 11 11 11 11 11 11 10 10 10 10 10 10 10 10 10 10 10 10 10 10 10 9 9 9 9 9 9
Wind_Speed
2 1 1 1 1 1 1 1 1 1 2 1 2 2 2 3 3 3 3 3 4 4 5 4 4 4 3 3 3 3 3 2 3 2 1 1 0 1 1 2 3 5 5
2 2 2 1 2 2 2 2 1 1 1 1 2 2 2 3 3 4 4 4 4 4 5 5 5 4 4 3 3 3 3 2 2 2 2 2 1 2 2 2 3 4 5
2 2 2 1 2 2 2 2 1 1 1 1 1 2 2 2 3 3 4 4 3 4 5 5 5 4 4 4 4 3 3 3 2 2 2 2 1 2 2 3 3 1 4
2 2 2 1 1 1 2 2 2 1 1 2 2 2 2 2 3 4 4 4 4 4 4 4 4 4 5 5 4 4 3 3 2 2 2 2 1 2 2 3 3 3 2
1 1 2 2 1 1 1 2 2 2 2 2 2 2 2 2 4 6 5 4 4 4 4 3 3 3 4 4 4 4 4 3 2 2 2 2 2 2 3 3 3 3 3
1 1 1 1 0 0 1 1 1 2 3 3 3 3 3 3 5 6 6 5 4 4 4 4 3 1 2 3 3 4 4 4 3 3 3 3 3 3 3 3 2 2 2
1 1 1 0 0 1 2 2 2 2 2 2 3 2 2 3 4 5 6 5 5 4 4 4 4 3 3 4 4 4 4 5 5 4 4 4 3 2 2 2 2 1 2
2 1 1 0 1 1 1 1 2 2 2 2 2 2 1 2 3 5 7 5 5 4 3 3 3 3 5 6 5 4 3 3 4 4 4 3 3 2 2 2 2 2 2
1 0 1 1 1 1 1 1 2 2 2 3 3 2 1 1 2 4 6 5 4 4 4 3 4 3 5 7 4 4 4 3 3 3 3 3 4 4 3 2 2 2 2
1 1 1 1 1 1 1 1 2 2 3 3 2 2 1 1 1 2 4 3 4 4 3 1 3 3 4 5 4 4 4 4 4 3 4 5 6 7 7 5 4 3 2
1 1 0 1 1 2 1 1 2 2 3 3 3 3 2 2 2 2 2 2 4 5 4 2 1 2 4 4 4 3 4 5 5 4 3 4 4 4 5 6 5 4 3
1 0 0 0 2 2 1 2 2 3 4 3 2 2 2 1 2 2 3 3 4 4 4 3 2 4 6 7 5 6 7 6 4 4 3 3 3 3 4 4 5 5 5
1 1 1 1 1 1 2 2 3 3 3 3 2 1 1 1 1 3 4 5 5 4 4 6 8 9 9 7 8 9 7 4 3 3 3 3 3 3 3 3 4 5 6
1 1 1 2 2 2 2 2 2 2 3 3 3 2 2 2 1 1 2 3 4 4 5 7 10 11 8 8 7 6 5 4 3 3 3 3 3 3 3 3 3 4 4
1 1 2 2 3 2 2 2 2 2 2 3 3 3 3 2 3 3 4 4 4 4 5 5 5 5 4 5 5 5 4 4 4 4 3 3 3 4 4 4 4 3 4
1 2 3 2 2 2 2 2 2 3 4 4 4 4 3 4 5 6 6 7 7 6 4 5 6 6 6 5 4 3 3 3 4 4 4 4 4 4 4 3 4 4 5
2 2 3 3 3 3 3 2 2 3 6 7 8 9 9 9 10 9 9 10 10 6 4 6 7 7 6 5 4 3 3 3 3 4 4 4 4 4 4 4 4 5 5
2 3 4 4 3 4 4 4 4 4 3 4 7 11 12 12 13 12 9 6 7 6 6 7 7 7 5 4 3 3 3 3 3 4 4 4 4 4 4 4 4 5 5
3 3 3 4 4 4 4 5 4 5 4 3 3 5 10 11 12 12 7 5 8 8 7 6 6 5 5 4 4 3 3 4 4 4 4 4 4 4 5 5 5 6 6
4 5 5 5 6 5 5 5 4 4 4 4 4 4 4 4 5 6 6 6 7 8 7 7 6 5 5 5 4 4 3 4 4 4 4 4 4 4 5 5 5 5 5
5 5 7 7 6 5 5 5 5 5 5 5 5 4 3 4 6 6 5 6 7 6 6 6 6 6 5 4 4 5 5 4 4 4 4 4 4 4 4 5 5 6 5
5 5 4 5 5 4 4 5 6 5 6 7 5 4 6 6 6 5 4 4 4 5 5 5 6 6 5 4 4 4 4 4 3 3 4 4 4 4 5 5 5 5 5
6 6 6 5 4 4 5 6 5 6 6 6 5 4 4 5 5 5 5 5 5 5 5 4 5 5 4 4 4 4 4 4 4 3 3 4 4 4 4 5 6 7 6
7 6 6 5 4 4 5 6 6 7 7 6 6 6 5 5 5 6 5 5 5 5 5 5 5 6 7 5 5 4 3 3 4 4 4 5 6 6 5 5 6 7 7
7 6 5 5 5 5 6 6 6 7 7 6 6 6 5 5 5 5 5 5 5 6 7 5 4 5 6 7 5 4 4 4 4 5 5 5 7 7 7 7 7 7 7
7 6 5 5 5 6 6 6 6 6 6 6 6 5 5 5 5 5 5 5 5 5 5 5 6 6 7 6 5 5 4 5 6 7 7 5 7 7 7 7 9 8 8
Wind_Direction
126 119 77 35 320 332 23 29 46 46 29 357 349 353 352 347 347 346 338 337 343 340 331 331 327 318 318 312 313 310 301 276 264 282 318 319 96 127 153 203 195 186 178
145 130 99 43 9 5 24 32 39 56 18 6 352 344 340 354 352 342 338 347 343 340 335 332 324 320 325 318 309 296 294 287 260 262 275 283 270 206 195 211 221 201 173
134 127 106 70 28 13 7 1 5 20 342 318 322 325 336 348 344 341 341 340 347 340 338 339 335 336 330 323 307 299 294 297 274 245 255 263 255 228 211 224 230 201 184
125 114 109 105 71 36 9 358 356 354 323 312 311 309 322 346 349 348 348 348 343 337 336 336 338 344 337 326 314 314 309 301 283 258 250 256 242 228 213 212 223 210 204
103 106 114 121 111 77 354 331 338 345 343 341 326 321 336 3 12 4 343 342 344 335 334 339 340 351 345 325 321 330 325 308 288 262 248 242 239 222 222 217 216 202 199
132 111 96 86 31 332 323 319 342 1 357 344 341 349 1 13 30 15 351 333 324 323 326 324 305 284 305 288 285 291 291 290 291 281 266 251 247 243 237 229 218 203 207
141 136 146 134 12 11 1 10 5 0 342 329 327 346 27 22 6 349 340 321 309 313 314 310 318 354 352 336 307 278 273 262 256 263 266 271 267 258 239 244 244 250 241
157 174 194 68 21 46 28 9 341 333 324 314 308 306 332 349 342 334 329 312 302 299 308 319 328 3 1 347 326 321 312 293 260 246 254 267 272 287 270 241 232 230 261
161 143 68 19 28 22 12 339 330 314 304 295 285 282 307 320 307 321 327 311 308 310 319 345 351 33 8 352 336 326 323 307 275 236 230 245 252 258 259 247 222 220 245
114 71 66 22 1 317 300 303 312 301 290 291 304 309 304 300 281 295 317 306 322 323 319 33 44 19 358 353 337 327 323 322 316 277 248 246 243 239 233 226 221 225 252
120 106 76 45 314 273 281 296 288 291 300 297 287 275 264 257 239 249 302 307 322 329 328 332 20 333 331 324 311 298 291 299 300 284 265 249 238 229 216 212 210 212 221
132 110 21 327 310 345 352 297 280 274 279 274 266 266 253 229 225 224 242 264 298 317 322 335 346 297 300 297 285 275 285 296 284 279 267 254 243 234 224 209 201 209 217
164 183 296 307 306 305 287 279 280 282 286 291 287 283 295 286 223 229 244 271 284 290 304 316 309 289 284 280 261 264 273 270 267 270 269 257 241 233 220 213 207 210 228
178 212 255 260 265 262 262 272 287 314 320 323 330 332 326 338 357 347 294 281 281 281 292 294 287 279 274 276 280 262 236 241 246 259 266 266 262 234 219 211 211 211 223
180 248 269 270 271 268 278 299 295 305 300 305 318 321 328 335 327 333 323 324 338 348 326 302 285 277 266 259 256 249 235 232 239 242 252 260 254 241 231 216 212 219 229
214 259 275 277 275 267 248 269 285 247 242 250 256 270 290 275 280 295 302 299 301 316 314 289 289 289 282 277 272 259 242 232 239 236 237 248 249 246 243 231 216 224 236
218 263 279 281 283 281 278 270 265 255 248 252 253 254 252 265 277 282 289 300 295 287 271 271 276 280 278 275 274 275 272 255 239 246 243 243 247 248 241 236 232 235 241
243 253 263 273 275 282 282 279 276 270 253 246 243 245 250 255 262 270 280 302 284 255 250 261 267 272 276 275 273 273 274 269 250 246 241 240 247 254 250 243 241 242 246
253 268 271 282 283 282 282 284 287 286 280 266 249 242 245 250 256 260 249 251 268 275 269 264 263 269 277 274 264 255 261 268 267 267 260 255 249 247 252 252 248 243 239
234 248 260 270 275 277 277 282 284 281 281 273 265 261 241 243 257 252 228 237 253 265 271 275 274 273 272 270 263 255 251 260 271 261 258 258 254 252 256 261 261 258 246
252 235 227 249 266 280 295 297 292 288 286 284 277 274 262 263 272 269 252 241 254 269 277 280 279 275 270 262 266 269 266 254 255 270 272 266 259 259 257 259 260 263 264
278 276 252 260 270 279 293 295 294 293 294 292 287 272 245 258 278 284 280 267 265 270 281 293 296 296 302 306 301 291 284 276 272 275 284 281 277 275 275 272 269 268 269
267 272 272 271 278 282 273 281 287 291 291 290 292 293 270 266 278 280 282 281 277 277 276 273 278 285 288 285 285 291 304 311 306 301 295 296 293 282 276 276 277 278 276
271 273 280 286 284 285 289 294 295 296 299 305 309 308 305 299 295 293 294 289 284 281 275 270 273 287 296 292 287 292 305 318 317 317 316 305 297 292 287 286 284 283 282
271 271 271 277 281 284 289 295 298 303 310 313 313 310 307 310 313 310 307 301 294 292 295 294 290 296 295 294 300 300 299 296 298 298 288 281 284 286 286 284 282 282 281
267 273 273 272 276 279 283 287 291 295 301 304 306 309 314 317 313 315 320 318 313 309 307 304 300 305 311 313 318 319 301 286 282 282 278 277 277 278 284 285 286 285 283
Height
1517 1517 1518 1518 1518 1518 1517 1517 1517 1517 1516 1516 1516 1515 1514 1514 1513 1512 1511 1510 1509 1508 1507 1506 1505 1504 1503 1502 1502 1501 1501 1501 1500 1500 1500 1500 1500 1499 1499 1499 1499 1500 1500
1517 1517 1517 1517 1517 1517 1516 1516 1516 1516 1516 1515 1515 1514 1514 1513 1512 1511 1510 1509 1508 1507 1506 1504 1503 1502 1501 1500 1499 1499 1498 1498 1498 1497 1497 1498 1497 1497 1497 1497 1497 1497 1498
1516 1516 1516 1517 1517 1517 1516 1516 1515 1515 1515 1515 1514 1514 1513 1512 1512 1511 1509 1508 1507 1506 1504 1502 1501 1500 1499 1498 1497 1496 1496 1495 1495 1495 1495 1495 1495 1495 1495 1495 1495 1496 1496
1516 1516 1516 1516 1516 1516 1515 1515 1515 1514 1514 1514 1513 1513 1512 1512 1511 1510 1509 1507 1506 1504 1502 1501 1499 1498 1496 1495 1494 1493 1493 1492 1492 1492 1492 1493 1493 1493 1493 1493 1493 1494 1494
1516 1516 1516 1516 1516 1515 1515 1515 1514 1514 1513 1513 1513 1512 1512 1511 1510 1509 1508 1506 1504 1503 1501 1499 1498 1496 1495 1493 1492 1491 1490 1490 1490 1490 1490 1490 1490 1490 1491 1491 1492 1492 1492
1516 1516 1516 1515 1515 1515 1514 1514 1514 1513 1512 1512 1512 1512 1511 1510 1509 1508 1507 1505 1503 1501 1500 1498 1497 1495 1493 1491 1490 1489 1488 1488 1487 1487 1487 1488 1488 1488 1489 1489 1489 1490 1490
1515 1515 1515 1515 1515 1514 1514 1513 1513 1512 1512 1511 1511 1511 1510 1509 1508 1507 1506 1504 1502 1500 1499 1497 1495 1494 1492 1490 1488 1487 1486 1485 1485 1485 1485 1485 1485 1486 1486 1486 1487 1488 1488
1515 1515 1515 1515 1514 1514 1513 1513 1512 1512 1511 1511 1510 1510 1509 1508 1507 1506 1504 1503 1501 1500 1498 1496 1494 1492 1490 1488 1486 1485 1484 1483 1482 1482 1482 1482 1483 1483 1483 1484 1485 1486 1486
1515 1515 1514 1514 1514 1513 1513 1512 1512 1511 1511 1510 1510 1509 1508 1507 1506 1505 1503 1502 1500 1499 1497 1495 1493 1491 1489 1487 1485 1483 1482 1481 1480 1480 1480 1480 1480 1480 1481 1482 1483 1484 1484
1514 1514 1514 1514 1513 1513 1513 1512 1512 1511 1510 1510 1509 1508 1507 1506 1505 1504 1502 1501 1499 1498 1496 1494 1492 1490 1488 1486 1484 1482 1481 1480 1479 1478 1478 1478 1477 1478 1479 1479 1480 1481 1482
1514 1514 1514 1514 1513 1513 1512 1512 1511 1511 1510 1509 1508 1507 1506 1505 1504 1503 1502 1500 1499 1497 1495 1494 1492 1490 1487 1485 1483 1481 1480 1479 1478 1477 1476 1476 1476 1476 1476 1477 1478 1478 1479
1514 1514 1514 1514 1514 1513 1513 1512 1511 1511 1510 1509 1508 1507 1506 1505 1503 1502 1501 1500 1499 1497 1495 1493 1491 1489 1487 1484 1482 1481 1479 1478 1477 1476 1475 1474 1474 1474 1474 1475 1475 1476 1477
1514 1514 1514 1514 1514 1513 1513 1512 1511 1511 1510 1509 1508 1507 1505 1504 1503 1502 1500 1499 1498 1496 1494 1493 1491 1488 1486 1484 1482 1480 1478 1477 1476 1475 1474 1473 1473 1473 1473 1473 1473 1474 1474
1514 1514 1514 1514 1513 1513 1513 1512 1511 1511 1510 1508 1507 1506 1505 1503 1502 1500 1499 1498 1496 1495 1493 1491 1490 1487 1485 1483 1481 1479 1478 1476 1475 1474 1473 1472 1472 1471 1471 1471 1471 1472 1472
1514 1514 1514 1514 1513 1513 1512 1511 1510 1509 1509 1508 1506 1505 1504 1502 1501 1499 1498 1496 1495 1493 1492 1490 1488 1486 1484 1482 1480 1478 1477 1475 1474 1473 1472 1471 1470 1470 1470 1470 1470 1470 1470
1514 1514 1514 1513 1513 1512 1511 1510 1509 1508 1507 1506 1505 1503 1502 1501 1499 1498 1496 1495 1493 1492 1490 1488 1486 1485 1483 1481 1479 1477 1476 1474 1473 1472 1471 1470 1469 1469 1468 1468 1468 1468 1468
1513 1513 1513 1513 1512 1512 1511 1510 1508 1507 1506 1504 1503 1502 1500 1499 1497 1496 1495 1493 1492 1490 1488 1487 1485 1483 1481 1480 1478 1477 1475 1473 1472 1471 1470 1469 1468 1467 1467 1466 1466 1466 1466
1513 1513 1513 1512 1512 1511 1510 1509 1507 1506 1504 1502 1501 1500 1498 1497 1495 1494 1492 1491 1489 1488 1486 1484 1483 1481 1480 1479 1477 1475 1473 1472 1471 1469 1468 1467 1467 1466 1465 1465 1464 1464 1463
1513 1512 1512 1512 1511 1510 1509 1508 1506 1505 1503 1501 1499 1498 1496 1495 1493 1491 1490 1488 1486 1485 1484 1482 1481 1480 1478 1477 1475 1473 1472 1470 1469 1467 1466 1465 1464 1463 1463 1462 1462 1461 1460
1511 1511 1511 1510 1509 1508 1507 1506 1504 1503 1501 1499 1497 1496 1494 1492 1490 1488 1487 1485 1484 1482 1481 1480 1478 1477 1475 1474 1472 1471 1469 1468 1466 1465 1463 1462 1461 1460 1460 1459 1458 1458 1457
1511 1510 1509 1508 1508 1507 1506 1504 1503 1501 1499 1497 1495 1493 1492 1490 1488 1486 1484 1482 1481 1480 1479 1477 1475 1474 1472 1471 1469 1468 1466 1465 1463 1462 1460 1459 1458 1457 1456 1455 1454 1454 1453
1510 1509 1508 1507 1506 1505 1504 1502 1501 1499 1497 1495 1492 1490 1488 1487 1485 1483 1481 1480 1478 1477 1475 1474 1472 1470 1469 1467 1466 1464 1463 1462 1460 1458 1457 1455 1454 1453 1452 1451 1450 1449 1449
1508 1507 1507 1506 1505 1503 1502 1500 1499 1497 1495 1493 1491 1489 1487 1485 1483 1481 1479 1477 1475 1474 1472 1470 1468 1466 1465 1463 1462 1461 1459 1458 1457 1455 1453 1452 1450 1449 1448 1447 1446 1445 1444
1506 1506 1505 1504 1503 1502 1500 1499 1497 1495 1493 1491 1489 1487 1485 1483 1481 1479 1477 1475 1472 1470 1469 1467 1465 1463 1461 1459 1457 1456 1455 1453 1452 1451 1449 1447 1446 1445 1443 1442 1441 1440 1439
1504 1504 1503 1502 1501 1499 1498 1496 1495 1493 1491 1489 1487 1485 1483 1480 1478 1476 1474 1472 1469 1467 1465 1463 1461 1459 1457 1455 1453 1452 1450 1449 1447 1446 1444 1443 1441 1440 1439 1437 1436 1435 1434
1502 1502 1501 1500 1499 1497 1496 1494 1492 1491 1489 1487 1484 1483 1480 1478 1475 1473 1471 1469 1466 1464 1462 1460 1458 1456 1453 1451 1449 1447 1445 1444 1442 1440 1439 1437 1436 1434 1433 1432 1430 1429 1428